LUCH (OLYMP-K 1) (40258 NORAD) Tracking and Keplerian Element Data

This shows tracking and keplerian element data for the satellite.

Feedback or suggestion? Click here.




ElementValue
Catalog40258
NameLUCH (OLYMP-K 1)
Epoch Orbit3919
Epoch Day353.93887331
Epoch Year2025
RAAN84.8472
Inclination1.4295
Eccentricity0.0003484
Argument of Perigee167.1151
Mean Anonmoly324.3954
Mean Motion0.99122157
Decay Rate-2.65E-06
L11 40258U 14058A 25353.93887331 -.00000265 00000+0 00000+0 0 9999
L22 40258 1.4295 84.8472 0003484 167.1151 324.3954 0.99122157 39194



Live tracking and technical data element details for LUCH (OLYMP-K 1) (NORAD 40258). LUCH (OLYMP-K 1) can be tracked NOW for your location showing map with azimuth and elevation plus other details from your city location.







IsCatalogInMostPopularTable: catalog: 40258, numindb: 1362
Update: records affected: 1



GetName: 40258 LUCH (OLYMP-K 1)

Hit Count: updated at: Mon, 18 May 2026 09:55:53 GMT